This demonstration page uses our WeatherBlox Daily Observations layout. Learn more.

Hourly Observations for March 18, 2019

Temp ( °F °C ) Dew Point ( °F °C ) Humidity (%) Winds ( mph kmh ) Pressure ( in mb ) Visibility ( mi km ) Precip ( " mm )
12:15 am 00:15 Clear 33 0.6 29 -1.6 85 85 NNE 15 24 30.48 1032 10 16.0934 0 0
12:35 am 00:35 Clear 33 0.5 29 -1.8 85 85 NNE 14 22 30.49 1033 10 16.0934 0 0
12:55 am 00:55 Clear 32 0.1 28 -2 86 86 NNE 12 19 30.5 1033 10 16.0934 0 0
1:15 am 01:15 Clear 32 0 28 -2 87 87 NNE 12 19 30.51 1033 10 16.0934 0 0
1:35 am 01:35 Clear 32 -0.2 28 -2.4 85 85 NNE 10 17 30.51 1033 10 16.0934 0 0
1:55 am 01:55 Clear 31 -0.5 28 -2.5 87 87 NNE 9 15 30.51 1033 10 16.0934 0 0
2:15 am 02:15 Clear 30 -1 28 -2.5 90 90 NNE 8 13 30.53 1034 10 16.0934 0 0
2:35 am 02:35 Clear 30 -1.1 27 -2.7 89 89 NNE 6 9 30.53 1034 10 16.0934 0 0
2:55 am 02:55 Clear 29 -1.5 27 -2.8 91 91 NNE 5 7 30.53 1034 10 16.0934 0 0
3:15 am 03:15 Clear 29 -1.8 27 -2.8 93 93 NNE 6 9 30.53 1034 10 16.0934 0 0
3:35 am 03:35 Clear 28 -2.1 27 -3 94 94 NNE 6 9 30.55 1034 10 16.0934 0 0
3:55 am 03:55 Clear 28 -2.5 26 -3.3 94 94 N 6 9 30.54 1034 10 16.0934 0 0
4:15 am 04:15 Clear 27 -2.6 26 -3.4 94 94 NNE 3 6 30.53 1034 10 16.0934 0 0
4:35 am 04:35 Clear 28 -2.5 26 -3.1 96 96 NNE 8 13 30.52 1034 10 16.0934 0 0
4:55 am 04:55 Clear 28 -2.5 26 -3.1 96 96 N 6 9 30.53 1034 10 16.0934 0 0
5:15 am 05:15 Clear 27 -2.6 26 -3.1 96 96 Calm 30.54 1034 10 16.0934 0 0
5:35 am 05:35 Clear 27 -2.7 26 -3.4 95 95 N 5 7 30.53 1034 10 16.0934 0 0
5:55 am 05:55 Clear 27 -3 26 -3.6 96 96 N 6 9 30.54 1034 10 16.0934 0 0
6:15 am 06:15 Clear 27 -2.7 26 -3.5 94 94 N 5 7 30.54 1034 10 16.0934 0 0
6:35 am 06:35 Clear 27 -2.8 26 -3.5 95 95 N 6 9 30.54 1034 10 16.0934 0 0
6:55 am 06:55 Clear 26 -3.3 25 -3.7 97 97 Calm 30.55 1034 10 16.0934 0 0
7:15 am 07:15 Clear 26 -3.2 26 -3.5 98 98 Calm 30.56 1035 10 16.0934 0 0
7:35 am 07:35 Clear 26 -3.2 26 -3.5 98 98 N 3 6 30.56 1035 10 16.0934 0 0
7:55 am 07:55 Sunny 26 -3.4 26 -3.6 99 99 NNW 3 6 30.56 1035 10 16.0934 0 0
8:15 am 08:15 Sunny 27 -3 26 -3.2 99 99 N 5 7 30.55 1034 10 16.0934 0 0
8:35 am 08:35 Sunny 28 -2.2 27 -2.7 96 96 Calm 30.55 1034 10 16.0934 0 0
8:55 am 08:55 Sunny 29 -1.7 28 -2.3 96 96 NNE 6 9 30.53 1034 10 16.0934 0 0
9:15 am 09:15 Sunny 30 -1.3 28 -2.2 94 94 NE 8 13 30.53 1034 10 16.0934 0 0
9:35 am 09:35 Sunny 31 -0.8 28 -2.2 90 90 NE 7 11 30.52 1034 10 16.0934 0 0
9:55 am 09:55 Sunny 31 -0.4 28 -2.1 88 88 ENE 6 9 30.53 1034 10 16.0934 0 0
10:15 am 10:15 Sunny 32 0 28 -2.4 84 84 E 7 11 30.53 1034 10 16.0934 0 0
10:35 am 10:35 Sunny 33 0.3 27 -2.9 79 79 E 7 11 30.52 1034 10 16.0934 0 0
10:55 am 10:55 Sunny 34 1 26 -3.3 73 73 ESE 7 11 30.52 1033 10 16.0934 0 0
11:15 am 11:15 Sunny 35 1.5 26 -3.4 70 70 SE 7 11 30.51 1033 10 16.0934 0 0
11:35 am 11:35 Sunny 36 2 26 -3.5 67 67 ESE 8 13 30.5 1033 10 16.0934 0 0
11:55 am 11:55 Sunny 37 2.5 26 -3.4 65 65 SE 8 13 30.49 1033 10 16.0934 0 0
12:15 pm 12:15 Sunny 38 3.1 26 -3.3 63 63 SE 8 13 30.48 1032 10 16.0934 0 0
12:35 pm 12:35 Sunny 38 3.5 26 -3.1 62 62 SE 10 17 30.46 1032 10 16.0934 0 0
12:55 pm 12:55 Sunny 39 3.9 26 -3.1 61 61 SE 8 13 30.45 1031 10 16.0934 0 0
1:15 pm 13:15 Sunny 40 4.3 28 -2.4 62 62 SE 7 11 30.45 1031 10 16.0934 0 0
1:35 pm 13:35 Sunny 40 4.5 29 -1.7 64 64 SE 6 9 30.43 1031 10 16.0934 0 0
1:55 pm 13:55 Sunny 41 5 29 -1.4 64 64 SE 7 11 30.42 1030 10 16.0934 0 0
2:15 pm 14:15 Sunny 41 5.2 29 -1.6 62 62 SE 9 15 30.41 1030 10 16.0934 0 0
2:35 pm 14:35 Sunny 42 5.7 30 -1.2 62 62 ESE 8 13 30.39 1029 10 16.0934 0 0
2:55 pm 14:55 Partly Cloudy 43 6 29 -1.4 59 59 SE 7 11 30.38 1029 10 16.0934 0 0
3:15 pm 15:15 Mostly Cloudy 43 6.3 30 -1.1 59 59 SE 7 11 30.36 1028 10 16.0934 0 0
3:35 pm 15:35 Mostly Cloudy 44 6.5 29 -1.8 56 56 SSE 8 13 30.33 1027 10 16.0934 0 0
3:55 pm 15:55 Partly Cloudy 44 6.5 29 -1.5 57 57 SSE 7 11 30.33 1027 10 16.0934 0 0
4:15 pm 16:15 Partly Cloudy 45 7 30 -1.3 56 56 SSE 5 7 30.32 1027 10 16.0934 0 0
4:35 pm 16:35 Partly Cloudy 45 7 29 -1.9 53 53 S 6 9 30.31 1026 10 16.0934 0 0
4:55 pm 16:55 Sunny 45 7 30 -1.3 56 56 SE 5 7 30.3 1026 10 16.0934 0 0
5:15 pm 17:15 Mostly Cloudy 44 6.9 29 -1.4 56 56 SE 3 6 30.3 1026 10 16.0934 0 0
5:35 pm 17:35 Cloudy 45 7 31 -0.6 59 59 SE 9 15 30.3 1026 10 16.0934 0 0
5:55 pm 17:55 Cloudy 45 7 31 -0.3 60 60 SE 8 13 30.29 1026 10 16.0934 0 0
6:15 pm 18:15 Cloudy 44 6.9 32 -0.2 61 61 SSE 8 13 30.29 1026 10 16.0934 0 0
6:35 pm 18:35 Cloudy 44 6.6 32 0.1 64 64 SSE 6 9 30.29 1026 10 16.0934 0 0
6:55 pm 18:55 Cloudy 43 6.2 34 1 70 70 SE 6 9 30.29 1026 10 16.0934 0 0
7:15 pm 19:15 Cloudy 42 5.8 34 1.1 72 72 SE 5 7 30.3 1026 10 16.0934 0 0
7:35 pm 19:35 Cloudy 41 5.2 35 1.5 77 77 SE 6 9 30.3 1026 10 16.0934 0 0
7:55 pm 19:55 Cloudy 41 5.1 35 1.6 78 78 SE 6 9 30.3 1026 10 16.0934 0 0
8:15 pm 20:15 Cloudy 40 4.7 35 1.7 81 81 ESE 6 9 30.3 1026 10 16.0934 0 0
8:35 pm 20:35 Cloudy 40 4.5 35 1.5 81 81 SE 6 9 30.3 1026 10 16.0934 0 0
8:55 pm 20:55 Cloudy 40 4.3 35 1.7 83 83 ESE 6 9 30.3 1026 10 16.0934 0 0
9:15 pm 21:15 Cloudy 39 4.1 36 2 86 86 ESE 6 9 30.31 1026 10 16.0934 0 0
9:35 pm 21:35 Cloudy 39 4 35 1.7 85 85 ESE 6 9 30.3 1026 10 16.0934 0 0
9:55 pm 21:55 Cloudy 39 4 35 1.5 84 84 ESE 8 13 30.29 1026 10 16.0934 0 0
10:15 pm 22:15 Cloudy 39 3.8 35 1.4 85 85 E 7 11 30.29 1026 10 16.0934 0 0
10:35 pm 22:35 Cloudy 39 3.7 34 1.2 84 84 E 7 11 30.29 1026 10 16.0934 0 0
10:55 pm 22:55 Cloudy 39 3.7 34 1.3 85 85 E 7 11 30.3 1026 10 16.0934 0 0
11:15 pm 23:15 Cloudy 38 3.6 34 1.3 85 85 ESE 8 13 30.29 1026 10 16.0934 0 0
11:35 pm 23:35 Cloudy 38 3.6 34 1.2 85 85 ESE 8 13 30.3 1026 10 16.0934 0 0
11:55 pm 23:55 Cloudy 38 3.5 33 0.7 82 82 ESE 10 17 30.29 1026 10 16.0934 0 0

Powered by AerisWeather